Date String (YYYY-MM-DD hh:mm:ss) UTC,Instrument flags,Ambient pressure (hPa),Sample flow (lpm),Bypass flow (lpm),Sample temperature (°C),Ambient temperature (°C),ASC tube jacket temperature (°C),LED temperature (°C),Box temperature (°C),Sample RH (%),Span deviation,Mass concentration (μg/m³),Mass concentration (μg/m³),Mass concentration (μg/m³)
DateTimeUTC,F1_M11,P_M11,Q1_M11,Q2_M11,T1_M11,T2_M11,T3_M11,T4_M11,T5_M11,U1_M11,ZSPAN_M11,X0_M11,X2_M11,X1_M11
2022-11-23 10:00:00,,0821.8,5.00,0.00,22.2,21.1,00.0,31.0,24.1,07.3,0000.0,0005.81,0002.16,0001.68
2022-11-23 10:01:00,,0821.8,5.01,0.00,22.2,21.0,00.0,31.0,24.1,07.1,0000.0,0005.95,0002.15,0001.65
2022-11-23 10:02:00,,0821.8,5.00,0.00,22.2,20.9,00.0,31.0,24.1,07.0,0000.0,0005.77,0002.09,0001.61
2022-11-23 10:03:00,,0821.8,5.00,0.00,22.1,20.9,00.0,31.1,24.0,07.0,0000.0,0005.64,0002.04,0001.57
2022-11-23 10:04:00,,0821.8,5.00,0.00,22.1,20.8,00.0,31.1,24.0,07.0,0000.0,0005.24,0002.00,0001.52
2022-11-23 10:05:00,,0821.7,5.00,0.00,22.1,20.7,00.0,31.1,24.0,06.9,0000.0,0004.84,0001.95,0001.46
2022-11-23 10:06:00,,0821.7,4.99,0.00,22.1,20.7,00.0,31.0,23.9,06.9,0000.0,0003.67,0001.91,0001.40
2022-11-23 10:07:00,,0821.6,4.99,0.00,22.1,20.7,00.0,31.0,23.9,06.8,0000.0,0003.32,0001.80,0001.35
2022-11-23 10:08:00,,0821.6,5.00,0.00,22.1,20.7,00.0,31.0,23.8,06.8,0000.0,0003.21,0001.76,0001.33
2022-11-23 10:09:00,,0821.6,5.01,0.00,22.0,20.6,00.0,31.0,23.7,06.8,0000.0,0002.96,0001.69,0001.30
2022-11-23 10:10:00,,0821.6,4.99,0.00,22.0,20.6,00.0,31.0,23.6,06.7,0000.0,0002.91,0001.67,0001.27
2022-11-23 10:11:00,,0821.6,5.00,0.00,22.0,20.6,00.0,31.0,23.7,06.7,0000.0,0002.75,0001.68,0001.27
2022-11-23 10:12:00,,0821.6,4.99,0.00,22.0,20.6,00.0,31.0,23.8,06.7,0000.0,0002.56,0001.68,0001.27
2022-11-23 10:13:00,,0821.5,5.01,0.00,22.0,20.5,00.0,31.0,23.7,06.7,0000.0,0002.63,0001.68,0001.26
2022-11-23 10:14:00,,0821.5,5.01,0.00,21.9,20.4,00.0,31.0,23.7,06.7,0000.0,0002.64,0001.68,0001.25
2022-11-23 10:15:00,,0821.5,5.01,0.00,21.9,20.3,00.0,31.0,23.6,06.6,0000.0,0002.67,0001.68,0001.27
2022-11-23 10:16:00,,0821.5,5.00,0.00,21.8,20.2,00.0,30.9,23.6,06.7,0000.0,0002.66,0001.65,0001.27
2022-11-23 10:17:00,,0821.5,4.99,0.00,21.8,20.1,00.0,30.9,23.6,06.7,0000.0,0002.71,0001.68,0001.29
2022-11-23 10:18:00,,0821.5,5.01,0.00,21.8,20.0,00.0,30.9,23.5,06.9,0000.0,0002.76,0001.71,0001.30
2022-11-23 10:19:00,,0821.6,5.01,0.00,21.7,20.0,00.0,30.9,23.4,07.0,0000.0,0003.01,0001.73,0001.31
2022-11-23 10:20:00,,0821.5,4.98,0.00,21.7,20.0,00.0,30.9,23.4,07.2,0000.0,0003.31,0001.77,0001.32
2022-11-23 10:21:00,,0821.6,5.00,0.00,21.7,20.4,00.0,30.8,23.5,07.3,0000.0,0003.55,0001.79,0001.35
2022-11-23 10:22:00,,0821.6,5.01,0.00,21.8,21.4,00.0,30.8,23.8,07.4,0000.0,0003.55,0001.81,0001.41
2022-11-23 10:23:00,,0821.6,5.00,0.00,21.9,21.9,00.0,30.8,24.0,07.4,0000.0,0003.63,0001.89,0001.48
2022-11-23 10:24:00,,0821.5,4.99,0.00,22.0,21.7,00.0,30.8,24.0,07.7,0000.0,0003.86,0001.97,0001.54
2022-11-23 10:25:00,,0821.5,5.02,0.00,22.0,21.5,00.0,30.9,24.0,07.8,0000.0,0004.26,0002.05,0001.55
2022-11-23 10:26:00,,0821.5,5.00,0.00,22.0,21.3,00.0,30.9,24.0,07.6,0000.0,0004.39,0002.12,0001.59
2022-11-23 10:27:00,,0821.5,5.00,0.00,22.0,21.2,00.0,30.9,24.0,07.6,0000.0,0004.80,0002.28,0001.68
2022-11-23 10:28:00,,0821.4,4.99,0.00,22.0,21.1,00.0,30.9,24.0,07.7,0000.0,0005.97,0002.41,0001.78
2022-11-23 10:29:00,,0821.4,4.99,0.00,22.0,21.0,00.0,30.9,24.0,07.8,0000.0,0006.32,0002.57,0001.90
2022-11-23 10:30:00,,0821.5,5.00,0.00,22.1,21.0,00.0,30.9,24.0,07.8,0000.0,0006.70,0002.66,0002.02
2022-11-23 10:31:00,,0821.5,5.00,0.00,22.0,20.9,00.0,30.9,24.0,07.9,0000.0,0006.44,0002.66,0002.05
2022-11-23 10:32:00,,0821.6,4.99,0.00,22.0,20.8,00.0,30.9,23.9,07.7,0000.0,0006.32,0002.71,0002.10
2022-11-23 10:33:00,,0821.5,5.00,0.00,22.0,20.8,00.0,30.9,23.9,07.7,0000.0,0006.47,0002.75,0002.10
2022-11-23 10:34:00,,0821.5,5.00,0.00,22.0,20.8,00.0,30.9,23.9,07.7,0000.0,0006.49,0002.74,0002.10
2022-11-23 10:35:00,,0821.4,5.00,0.00,22.0,20.8,00.0,30.9,23.9,07.7,0000.0,0006.57,0002.78,0002.15
2022-11-23 10:36:00,,0821.4,5.00,0.00,22.1,20.8,00.0,30.9,23.9,07.7,0000.0,0006.38,0002.87,0002.27
2022-11-23 10:37:00,,0821.4,5.00,0.00,22.1,20.9,00.0,30.9,24.0,07.5,0000.0,0006.44,0002.95,0002.36
2022-11-23 10:38:00,,0821.4,5.00,0.00,22.1,20.8,00.0,31.0,24.0,07.7,0000.0,0006.15,0002.94,0002.41
2022-11-23 10:39:00,,0821.4,5.01,0.00,22.0,20.8,00.0,31.0,24.0,07.7,0000.0,0005.15,0002.94,0002.44
2022-11-23 10:40:00,,0821.4,5.01,0.00,22.0,20.7,00.0,31.0,23.9,07.8,0000.0,0005.19,0002.94,0002.44
2022-11-23 10:41:00,,0821.4,5.00,0.00,22.0,20.6,00.0,31.0,23.9,07.9,0000.0,0005.71,0003.02,0002.47
2022-11-23 10:42:00,,0821.4,5.00,0.00,22.0,20.5,00.0,31.0,23.9,08.0,0000.0,0006.22,0003.15,0002.57
2022-11-23 10:43:00,,0821.4,5.00,0.00,22.0,20.4,00.0,31.0,23.8,08.0,0000.0,0006.29,0003.18,0002.62
2022-11-23 10:44:00,,0821.4,4.98,0.00,22.0,20.3,00.0,31.0,23.8,08.1,0000.0,0006.45,0003.21,0002.69
2022-11-23 10:45:00,,0821.4,4.99,0.00,21.9,20.2,00.0,30.9,23.8,08.1,0000.0,0006.59,0003.25,0002.76
2022-11-23 10:46:00,,0821.4,5.00,0.00,21.9,20.1,00.0,30.9,23.7,08.1,0000.0,0006.93,0003.25,0002.81
2022-11-23 10:47:00,,0821.4,5.01,0.00,21.9,20.0,00.0,30.9,23.6,08.1,0000.0,0007.93,0003.24,0002.80
2022-11-23 10:48:00,,0821.4,5.01,0.00,21.8,19.9,00.0,30.9,23.6,08.1,0000.0,0008.20,0003.27,0002.80
2022-11-23 10:49:00,,0821.4,5.00,0.00,21.8,19.8,00.0,30.9,23.5,08.1,0000.0,0008.66,0003.29,0002.80
2022-11-23 10:50:00,,0821.4,4.99,0.00,21.8,20.0,00.0,30.8,23.5,08.1,0000.0,0008.89,0003.30,0002.79
2022-11-23 10:51:00,,0821.4,5.01,0.00,21.8,20.9,00.0,30.7,23.7,08.1,0000.0,0008.87,0003.29,0002.77
2022-11-23 10:52:00,,0821.4,4.99,0.00,21.9,21.7,00.0,30.7,23.9,08.4,0000.0,0008.70,0003.27,0002.74
2022-11-23 10:53:00,,0821.4,4.99,0.00,22.0,21.6,00.0,30.8,24.0,08.4,0000.0,0008.63,0003.26,0002.74
2022-11-23 10:54:00,,0821.3,5.01,0.00,22.0,21.4,00.0,30.8,23.9,08.2,0000.0,0008.61,0003.24,0002.71
2022-11-23 10:55:00,,0821.4,5.01,0.00,22.0,21.1,00.0,30.9,23.9,08.1,0000.0,0008.59,0003.22,0002.68
2022-11-23 10:56:00,,0821.3,4.98,0.00,22.0,20.9,00.0,30.9,23.8,08.0,0000.0,0008.51,0003.19,0002.65
2022-11-23 10:57:00,,0821.3,4.99,0.00,21.9,20.7,00.0,30.9,23.7,08.1,0000.0,0008.24,0003.21,0002.66
2022-11-23 10:58:00,,0821.3,5.01,0.00,21.9,20.5,00.0,30.9,23.7,08.2,0000.0,0007.57,0003.25,0002.70
2022-11-23 10:59:00,,0821.3,5.00,0.00,21.9,20.4,00.0,30.9,23.7,08.3,0000.0,0007.47,0003.25,0002.73
